SCP
-0 -0 -0 -0 -0 -0 -0 -0 0 0 0 0 -0 -0 -0 -0 -0 -0 -0 0 0 0 0 0 0 0 0 0 0 -0 -0 -0 0 0 0 0 0 0 0 0 0 0 0 0 0 0 0
-0 -0 -0 -0 -0 -0 -0 -0 0 0 0 0 -0 -0 -0 -0 -0 -0 -0 0 0 0 0 0 0 0 0 0 0 0 -0 -0 0 0 0 0 0 0 0 0 0 0 0 0 0 0 0
-0 -0 -0 -0 -0 -0 -0 0 -0 0 0 0 0 -0 -0 -0 -0 -0 -0 -0 -0 -0 0 0 0 0 0 0 0 -0 0 0 0 0 0 0 0 0 0 0 0 0 0 0 0 0 0
-0 -0 -0 -0 -0 0 0 0 0 0 -0 -0 -0 -0 -0 -0 -0 -0 -0 -0 -0 -0 0 0 0 0 0 0 -0 0 0 0 0 0 0 0 0 0 0 0 0 0 0 0 0 0 0
-0 -0 -0 -0 -0 -0 -0 -0 -0 0 0 -0 -0 -0 -0 -0 -0 -0 -0 -0 -0 -0 0 0 0 0 0 0 0 0 0 -0 0 0 0 -0 0 0 0 0 0 0 0 0 0 0 0
0 -0 -0 -0 -0 -0 -0 -0 -0 -0 0 -0 -0 -0 -0 -0 -0 -0 -0 -0 -0 0 0 0 -0 0 -0 -0 0 0 -0 0 -0 0 0 0 0 0 0 0 0 0 0 0 0 0 0
0 0 0 0 0 0 0 0 0 0 0 0 0 -0 -0 -0 -0 -0 -0 0 0 0 0 0 0 0 -0 0 0 0 -0 0 0 0 0 0 0 0 0 0 0 0 0 0 0 0 0
0 0 0 0 0 0 0 0 0 0 0 0 -0 -0 -0 -0 -0 -0 0 0 0 0 0 0 -0 -0 -0 0 0 0 0 0 0 0 0 0 0 0 0 0 0 0 0 0 0 0 0
0 0 0 0 0 0 0 0 0 0 0 0 0 0 -0 -0 0 -0 0 -0 0 0 0 0 0 -0 0 0 0 -0 0 0 0 0 0 0 0 0 0 0 0 0 0 0 0 0 0
0 0 0 0 0 0 0 0 0 0 0 0 0 0 0 -0 0 0 0 0 0 0 0 0 0 0 0 0 0 0 0 0 0 0 0 0 0 0 0 0 0 0 0 0 0 0 0
0 0 0 0 0 0 0 0 -0 -0 0 0 0 0 -0 0 0 0 0 0 0 0 0 0 0 0 0 0 0 0 0 0 0 0 0 0 -0 -0 0 0 0 0 0 0 0 0 0
0 0 0 0 0 0 0 0 0 0 0 0 0 0 0 0 0 0 -0 -0 0 0 0 0 0 0 0 0 0 0 0 0 0 0 0 0 0 0 0 0 0 0 0 0 0 0 0
0 0 0 -0 0 0 0 0 0 0 0 0 -0 -0 0 -0 0 0 -0 0 0 0 0 0 0 0 0 -0 -0 0 0 0 0 0 0 0 0 0 0 0 0 0 -0 0 0 0 0
0 0 0 -0 0 0 0 0 0 0 0 -0 -0 -0 0 0 0 0 -0 0 0 0 0 0 0 0 0 0 0 0 0 0 0 0 0 0 0 0 0 0 -0 0 0 0 0 0 0
0 0 0 0 0 0 0 0 0 0 0 0 0 0 0 0 0 0 0 0 0 0 0 0 0 0 0 0 0 0 0 0 0 0 0 0 0 0 0 0 0 0 0 0 0 0 0
0 0 0 0 0 0 0 0 0 0 0 0 0 0 0 0 0 0 0 0 0 0 0 0 0 0 0 0 0 0 0 0 0 0 0 0 -0 0 0 0 0 0 0 0 0 0 0
0 0 0 0 0 0 0 0 0 0 0 0 0 0 0 0 0 0 0 0 0 0 0 0 0 0 0 0 -0 0 -0 -0 0 0 0 0 0 0 0 0 -0 -0 0 0 0 0 0
0 0 0 0 0 0 0 0 0 0 0 0 0 0 0 0 0 0 0 0 -0 0 0 0 0 0 0 0 0 0 -0 -0 0 0 0 0 0 0 -0 -0 0 -0 0 0 0 0 0
0 0 0 0 0 0 0 0 0 0 0 0 0 0 0 0 0 0 0 -0 0 0 0 0 0 0 0 0 0 0 0 -0 0 0 0 0 0 0 0 0 0 0 0 0 0 0 0
0 0 0 0 0 0 0 0 0 0 0 0 0 0 0 0 0 0 0 0 0 0 0 0 0 0 0 0 -0 0 -0 0 0 0 0 0 0 0 0 0 0 -0 0 0 0 -0 -0
0 0 0 0 0 0 0 0 0 0 0 0 0 0 0 0 0 0 0 0 0 0 0 0 0 0 0 -0 -0 -0 -0 -0 0 0 0 0 0 0 0 0 0 0 0 0 0 0 0
0 0 0 0 0 0 0 0 0 0 0 0 0 0 0 0 0 0 0 0 0 0 0 0 0 0 -0 -0 -0 -0 -0 0 0 0 0 0 0 0 0 0 0 -0 -0 -0 0 0 0
0 0 0 0 0 0 0 0 0 0 0 0 0 0 0 0 0 0 0 0 0 0 0 0 0 0 -0 -0 0 -0 0 0 0 0 0 0 0 0 0 0 0 0 0 0 0 -0 0
0 0 0 0 0 0 0 0 0 0 0 0 0 0 0 0 0 0 0 0 0 0 0 0 0 0 0 -0 -0 0 0 0 0 0 0 0 0 0 0 0 0 0 0 0 -0 0 0
0 0 0 0 0 0 0 0 0 0 0 0 0 0 0 0 0 0 0 0 0 0 0 0 0 0 -0 0 0 0 0 0 0 0 0 0 0 0 0 0 0 -0 0 0 0 0 0
0 0 0 0 0 0 0 0 0 0 0 0 0 0 0 0 0 0 0 0 0 0 0 0 -0 0 0 0 0 0 0 0 0 0 0 0 0 0 0 0 0 0 0 0 0 -0 0
0 0 0 0 0 0 0 0 0 0 0 0 0 0 0 0 0 0 0 0 0 0 0 0 0 0 0 0 0 0 0 0 0 0 0 0 0 0 0 0 0 0 0 -0 -0 0 -0
0 0 0 0 0 0 0 0 0 0 0 0 0 0 0 0 0 0 0 0 0 0 0 0 0 0 0 0 0 0 0 0 0 0 0 0 0 0 0 0 0 0 -0 -0 -0 0 -0
0 0 0 0 0 0 0 0 0 0 0 0 0 0 0 0 0 0 0 0 0 0 0 0 0 0 0 0 0 0 0 0 0 0 0 0 0 0 0 0 0 -0 -0 0 -0 0 -0
Wind_Speed_500mb
42 43 43 43 42 42 42 41 40 40 41 41 41 38 36 34 33 33 34 33 30 27 27 31 34 29 22 12 14 12 21 20 19 17 19 28 29 28 16 15 42 41 35 52 63 63 71
44 44 45 46 48 49 49 48 46 43 42 42 42 41 40 37 36 35 32 31 30 29 28 30 28 24 14 11 3 13 17 18 23 20 15 19 21 33 28 24 19 33 43 43 55 56 60
41 42 43 44 46 47 49 50 50 50 49 47 46 46 44 40 38 34 32 31 28 26 29 26 18 19 18 30 2 10 13 16 20 18 18 16 25 23 35 19 30 38 24 28 36 38 34
39 39 41 42 44 45 46 47 47 47 48 48 49 49 47 43 40 35 31 28 22 23 24 15 16 13 17 8 8 1 15 18 15 17 21 24 23 15 24 29 33 16 17 13 5 26 47
45 48 51 53 53 53 54 54 55 53 51 50 49 51 48 42 38 33 28 24 25 23 20 12 9 9 19 12 12 7 18 15 20 23 21 20 15 15 21 13 12 10 17 22 29 17 16
47 48 50 53 56 57 57 57 57 55 53 51 51 51 51 41 31 26 21 25 20 17 6 12 10 13 18 11 10 21 17 10 23 26 24 27 20 10 8 9 10 14 18 19 28 11 25
48 48 50 53 56 57 59 61 63 63 59 55 53 54 52 38 26 18 16 22 19 5 11 25 20 25 44 20 13 13 14 18 25 27 10 22 9 12 25 26 31 29 30 27 27 19 23
49 50 50 54 56 58 61 62 61 62 64 60 56 53 51 36 16 5 15 16 20 21 22 36 42 42 32 23 17 20 14 11 22 14 19 13 12 17 25 24 24 23 31 30 21 22 27
50 52 53 55 56 59 62 63 62 61 61 62 60 54 49 26 4 8 13 9 25 25 10 30 22 18 17 4 16 22 5 12 12 16 16 15 24 30 34 32 30 24 29 20 27 20 24
51 53 54 56 59 59 61 64 63 63 64 62 61 54 41 20 11 20 18 18 22 25 5 10 11 8 7 12 17 22 16 12 7 14 16 14 23 30 26 28 29 32 28 36 34 23 23
53 55 57 59 60 61 61 63 65 69 69 68 60 54 32 13 17 10 27 23 28 2 4 12 19 18 10 15 20 32 21 18 17 24 13 19 23 28 21 21 33 27 46 26 36 35 21
54 58 60 61 64 65 65 66 68 70 73 69 60 44 29 12 12 20 30 25 20 3 6 11 13 13 16 24 25 17 26 31 36 22 18 21 27 3 6 20 20 29 25 30 30 17 23
55 59 62 65 67 68 68 71 73 74 74 70 60 32 21 20 4 24 31 21 3 6 8 11 12 27 24 27 31 14 5 8 9 9 12 12 10 4 7 10 15 20 13 9 8 14 27
57 61 64 67 69 68 70 71 74 77 76 72 47 13 13 7 6 18 19 5 5 16 13 23 24 24 29 24 22 25 23 12 14 13 8 10 15 2 6 10 7 12 5 6 8 10 14
59 63 65 67 67 68 69 70 76 78 80 62 36 3 10 7 5 15 17 4 1 20 23 25 26 21 21 34 18 21 17 10 12 17 12 11 14 21 15 26 20 9 13 29 19 16 5
61 63 64 63 64 68 66 70 74 80 75 53 24 12 16 7 5 11 3 7 7 16 22 19 11 13 25 25 19 22 17 15 28 27 27 14 28 12 21 28 22 13 12 11 6 6 8
61 64 61 60 62 63 63 66 71 79 71 43 12 6 6 6 11 8 3 8 27 31 6 7 19 23 17 15 21 25 19 27 19 21 18 13 8 21 21 9 25 26 8 8 5 3 8
63 64 56 60 59 57 63 64 67 73 71 39 15 3 3 12 4 6 6 13 37 29 23 10 3 10 12 17 18 20 23 13 21 13 10 5 8 21 38 36 36 25 8 9 8 9 8
63 57 56 58 56 60 61 62 62 62 55 58 23 9 7 9 1 7 19 25 32 27 19 11 9 11 11 14 9 13 26 28 15 11 8 6 7 12 19 11 7 7 7 7 1 9 13
59 54 55 57 58 61 63 60 55 53 33 39 15 8 8 11 23 17 16 14 26 24 19 35 6 14 14 15 13 12 26 15 27 14 8 2 8 17 21 28 20 36 26 22 9 8 19
56 55 54 53 58 61 61 58 49 46 25 23 16 10 17 9 12 21 23 14 19 18 19 28 13 20 21 13 24 23 27 39 23 9 4 11 13 23 40 40 39 44 39 39 38 31 30
53 54 54 52 58 59 58 54 46 41 26 23 15 15 24 24 31 21 22 10 15 20 19 21 15 21 19 22 26 39 32 26 17 12 6 5 8 14 31 40 40 43 38 42 38 37 35
51 52 53 52 54 54 54 49 43 36 29 15 16 16 12 20 17 14 8 20 25 21 6 25 25 20 24 32 45 48 56 59 41 13 8 5 6 7 10 21 26 14 15 19 19 27 28
51 52 49 52 51 50 50 46 40 31 20 10 13 19 8 9 13 15 35 34 29 30 31 40 36 20 28 46 57 58 59 38 23 17 18 10 5 4 12 18 4 4 29 15 20 13 26
49 52 50 47 46 46 46 43 39 32 21 9 6 13 5 10 23 39 29 34 44 35 20 30 31 45 51 33 9 14 9 8 11 19 19 10 3 6 7 6 22 17 32 27 17 14 24
46 48 47 43 43 45 44 44 41 35 26 15 8 7 16 11 12 22 35 33 19 20 18 22 59 53 23 6 4 6 6 9 8 7 13 13 5 4 6 8 6 12 28 39 27 14 24
42 46 45 43 43 45 44 43 42 38 32 23 10 6 21 23 44 23 19 27 37 28 16 26 25 28 25 6 3 6 7 9 4 3 8 5 5 9 12 12 12 12 25 33 8 9 48
42 46 44 44 43 45 45 44 42 37 30 29 22 22 22 29 68 70 53 51 39 37 9 17 18 13 9 7 6 7 6 7 8 8 5 6 5 5 5 6 11 21 21 5 20 61 52
42 44 45 45 44 47 48 45 41 37 26 24 34 12 28 37 53 74 90 81 80 83 65 29 18 13 7 6 5 6 6 7 10 7 6 4 8 4 8 9 21 53 29 34 33 39 53
Wind_Direction_500mb
26 25 22 17 15 14 12 8 3 0 358 354 352 349 346 339 329 322 320 320 316 315 317 322 324 322 339 322 270 338 356 7 9 350 319 314 300 279 243 246 237 257 269 263 251 249 257
25 22 19 14 11 10 9 7 5 2 358 353 348 344 340 335 330 323 318 315 313 313 317 318 317 318 333 265 12 336 342 339 325 316 307 303 303 315 292 286 280 297 292 280 270 262 248
20 16 13 10 8 6 4 1 359 357 356 354 350 344 338 333 328 321 316 313 310 311 314 312 305 312 287 249 331 287 324 319 308 296 307 291 298 328 321 320 303 321 310 291 278 274 264
18 14 9 5 3 1 359 356 353 351 349 349 348 345 339 332 327 321 315 312 306 314 322 297 300 301 260 145 342 227 314 314 308 306 295 294 272 277 287 284 291 299 290 288 1 245 264
13 11 9 6 4 0 356 353 353 348 345 343 344 345 341 332 326 319 317 310 301 304 308 294 295 294 286 188 249 324 340 313 315 309 304 283 258 237 278 283 294 240 266 276 286 272 263
14 13 14 12 10 8 6 1 355 351 346 341 340 343 342 336 332 320 323 318 314 308 270 310 230 277 269 270 330 347 325 306 305 291 283 265 216 191 244 212 242 251 257 257 254 269 256
12 9 7 8 6 5 3 1 0 357 351 345 342 341 342 337 335 329 356 7 356 336 323 253 239 243 296 291 337 316 312 326 309 325 304 323 326 239 232 239 238 249 263 281 291 336 333
6 5 2 0 360 359 358 357 358 358 357 350 344 340 340 337 338 351 338 355 4 311 300 280 261 262 267 285 275 288 309 322 331 311 308 327 282 275 305 294 277 282 276 277 298 315 300
0 358 355 353 352 352 352 353 353 353 353 353 345 340 338 339 13 339 346 349 343 328 303 300 235 235 223 270 269 272 246 295 315 315 312 318 301 315 315 312 311 301 295 298 280 283 270
356 355 353 350 349 349 350 348 347 346 344 343 346 338 337 334 317 332 357 336 331 319 299 207 161 185 210 255 250 215 221 193 256 291 293 279 292 293 300 301 302 289 273 283 288 287 276
356 355 352 350 350 349 349 347 344 342 341 337 335 336 336 313 343 22 350 333 326 72 5 188 133 171 230 215 262 292 192 191 237 251 254 250 277 291 307 352 339 315 330 308 313 289 290
356 354 352 351 349 349 348 346 344 342 342 339 329 334 326 242 303 0 327 311 313 279 262 144 160 213 205 257 297 282 262 214 245 245 259 262 264 315 184 329 319 307 341 332 303 272 265
354 353 351 349 348 347 347 345 345 344 344 341 335 329 308 222 297 1 324 339 353 238 233 71 9 4 337 302 285 259 284 279 275 288 293 321 330 26 97 307 320 334 41 312 295 250 257
352 351 349 348 347 346 347 346 346 345 346 341 348 353 350 219 52 340 336 341 253 331 359 5 0 326 290 315 9 342 316 330 332 21 338 307 313 74 126 191 243 297 256 188 274 271 297
349 348 347 347 346 347 347 349 348 346 348 344 354 93 63 94 76 338 331 309 336 324 7 2 349 323 331 357 1 329 338 330 358 18 342 316 288 304 226 259 242 170 262 237 220 284 332
347 346 346 347 347 349 352 352 351 348 355 352 6 33 23 117 311 349 327 287 300 28 356 353 317 317 338 345 353 336 335 346 342 34 3 335 309 289 327 333 314 185 209 307 214 243 255
346 346 347 348 350 352 355 356 356 350 359 359 46 335 188 193 313 273 271 266 305 326 2 356 307 311 337 335 333 319 309 320 343 11 351 28 294 296 321 281 291 310 310 360 35 220 208
346 346 350 349 351 354 354 359 360 355 353 12 22 325 201 12 267 200 251 292 345 335 1 320 49 319 350 324 318 304 295 302 71 61 337 64 275 283 274 279 272 278 316 181 226 279 250
345 347 349 348 352 352 353 356 0 1 352 352 344 277 259 35 35 330 328 347 314 338 331 332 3 357 326 298 308 319 295 313 46 36 5 348 291 305 302 257 111 105 317 133 278 232 244
343 345 345 346 351 351 349 352 359 3 358 349 335 324 36 309 9 16 336 329 327 324 342 352 276 287 291 289 283 280 307 305 293 254 292 216 234 223 260 269 301 293 285 267 261 275 285
343 343 343 346 349 349 349 355 1 9 20 13 4 30 6 322 342 317 302 291 306 337 354 348 333 329 346 327 316 298 311 304 301 14 103 187 247 233 256 269 274 271 275 271 262 245 253
343 341 343 347 346 348 350 356 1 9 32 39 20 0 342 296 313 294 293 347 347 331 331 314 296 329 331 305 285 290 301 306 302 360 244 200 267 276 270 272 262 268 263 260 260 264 254
340 342 344 345 345 347 349 355 360 6 22 61 28 354 331 293 305 310 17 332 311 306 289 299 292 304 298 281 291 307 295 284 283 187 186 204 270 268 264 322 322 287 300 267 274 282 237
337 342 342 343 343 346 347 352 356 2 13 39 360 337 324 290 317 315 317 304 306 320 290 296 307 276 294 316 313 297 281 266 251 147 146 179 226 269 285 304 270 83 36 12 331 33 28
335 340 339 344 344 345 345 347 350 353 353 345 77 310 275 283 296 298 342 316 302 301 336 320 320 326 323 318 292 300 308 175 176 164 169 156 186 285 288 287 274 298 40 20 0 315 26
331 337 336 341 342 340 341 341 343 345 341 329 243 301 276 288 252 289 316 304 323 326 315 310 321 324 328 274 298 288 284 280 302 132 141 173 194 186 320 284 292 37 3 351 320 254 14
327 332 332 334 337 336 335 335 333 333 334 330 332 220 277 267 279 267 298 307 301 296 284 320 342 329 340 327 295 248 263 356 330 307 216 207 226 223 236 248 277 25 353 320 278 295 332
323 329 328 329 333 332 332 332 330 327 331 328 315 236 266 272 281 280 286 274 289 291 274 307 331 5 308 322 346 343 318 312 331 306 253 230 242 253 255 266 283 23 7 351 315 306 308
320 325 324 326 329 330 330 330 329 325 322 311 307 291 274 275 259 279 290 284 272 269 259 261 251 336 291 306 48 308 306 296 325 288 124 248 196 264 214 248 330 312 284 305 298 292 300
Wind_Speed_850mb
42 43 43 43 42 42 42 41 40 40 41 41 41 38 36 34 33 33 34 33 30 27 27 31 34 29 22 12 14 12 21 20 19 17 19 28 29 28 16 15 42 41 35 52 63 63 71
44 44 45 46 48 49 49 48 46 43 42 42 42 41 40 37 36 35 32 31 30 29 28 30 28 24 14 11 3 13 17 18 23 20 15 19 21 33 28 24 19 33 43 43 55 56 60
41 42 43 44 46 47 49 50 50 50 49 47 46 46 44 40 38 34 32 31 28 26 29 26 18 19 18 30 2 10 13 16 20 18 18 16 25 23 35 19 30 38 24 28 36 38 34
39 39 41 42 44 45 46 47 47 47 48 48 49 49 47 43 40 35 31 28 22 23 24 15 16 13 17 8 8 1 15 18 15 17 21 24 23 15 24 29 33 16 17 13 5 26 47
45 48 51 53 53 53 54 54 55 53 51 50 49 51 48 42 38 33 28 24 25 23 20 12 9 9 19 12 12 7 18 15 20 23 21 20 15 15 21 13 12 10 17 22 29 17 16
47 48 50 53 56 57 57 57 57 55 53 51 51 51 51 41 31 26 21 25 20 17 6 12 10 13 18 11 10 21 17 10 23 26 24 27 20 10 8 9 10 14 18 19 28 11 25
48 48 50 53 56 57 59 61 63 63 59 55 53 54 52 38 26 18 16 22 19 5 11 25 20 25 44 20 13 13 14 18 25 27 10 22 9 12 25 26 31 29 30 27 27 19 23
49 50 50 54 56 58 61 62 61 62 64 60 56 53 51 36 16 5 15 16 20 21 22 36 42 42 32 23 17 20 14 11 22 14 19 13 12 17 25 24 24 23 31 30 21 22 27
50 52 53 55 56 59 62 63 62 61 61 62 60 54 49 26 4 8 13 9 25 25 10 30 22 18 17 4 16 22 5 12 12 16 16 15 24 30 34 32 30 24 29 20 27 20 24
51 53 54 56 59 59 61 64 63 63 64 62 61 54 41 20 11 20 18 18 22 25 5 10 11 8 7 12 17 22 16 12 7 14 16 14 23 30 26 28 29 32 28 36 34 23 23
53 55 57 59 60 61 61 63 65 69 69 68 60 54 32 13 17 10 27 23 28 2 4 12 19 18 10 15 20 32 21 18 17 24 13 19 23 28 21 21 33 27 46 26 36 35 21
54 58 60 61 64 65 65 66 68 70 73 69 60 44 29 12 12 20 30 25 20 3 6 11 13 13 16 24 25 17 26 31 36 22 18 21 27 3 6 20 20 29 25 30 30 17 23
55 59 62 65 67 68 68 71 73 74 74 70 60 32 21 20 4 24 31 21 3 6 8 11 12 27 24 27 31 14 5 8 9 9 12 12 10 4 7 10 15 20 13 9 8 14 27
57 61 64 67 69 68 70 71 74 77 76 72 47 13 13 7 6 18 19 5 5 16 13 23 24 24 29 24 22 25 23 12 14 13 8 10 15 2 6 10 7 12 5 6 8 10 14
59 63 65 67 67 68 69 70 76 78 80 62 36 3 10 7 5 15 17 4 1 20 23 25 26 21 21 34 18 21 17 10 12 17 12 11 14 21 15 26 20 9 13 29 19 16 5
61 63 64 63 64 68 66 70 74 80 75 53 24 12 16 7 5 11 3 7 7 16 22 19 11 13 25 25 19 22 17 15 28 27 27 14 28 12 21 28 22 13 12 11 6 6 8
61 64 61 60 62 63 63 66 71 79 71 43 12 6 6 6 11 8 3 8 27 31 6 7 19 23 17 15 21 25 19 27 19 21 18 13 8 21 21 9 25 26 8 8 5 3 8
63 64 56 60 59 57 63 64 67 73 71 39 15 3 3 12 4 6 6 13 37 29 23 10 3 10 12 17 18 20 23 13 21 13 10 5 8 21 38 36 36 25 8 9 8 9 8
63 57 56 58 56 60 61 62 62 62 55 58 23 9 7 9 1 7 19 25 32 27 19 11 9 11 11 14 9 13 26 28 15 11 8 6 7 12 19 11 7 7 7 7 1 9 13
59 54 55 57 58 61 63 60 55 53 33 39 15 8 8 11 23 17 16 14 26 24 19 35 6 14 14 15 13 12 26 15 27 14 8 2 8 17 21 28 20 36 26 22 9 8 19
56 55 54 53 58 61 61 58 49 46 25 23 16 10 17 9 12 21 23 14 19 18 19 28 13 20 21 13 24 23 27 39 23 9 4 11 13 23 40 40 39 44 39 39 38 31 30
53 54 54 52 58 59 58 54 46 41 26 23 15 15 24 24 31 21 22 10 15 20 19 21 15 21 19 22 26 39 32 26 17 12 6 5 8 14 31 40 40 43 38 42 38 37 35
51 52 53 52 54 54 54 49 43 36 29 15 16 16 12 20 17 14 8 20 25 21 6 25 25 20 24 32 45 48 56 59 41 13 8 5 6 7 10 21 26 14 15 19 19 27 28
51 52 49 52 51 50 50 46 40 31 20 10 13 19 8 9 13 15 35 34 29 30 31 40 36 20 28 46 57 58 59 38 23 17 18 10 5 4 12 18 4 4 29 15 20 13 26
49 52 50 47 46 46 46 43 39 32 21 9 6 13 5 10 23 39 29 34 44 35 20 30 31 45 51 33 9 14 9 8 11 19 19 10 3 6 7 6 22 17 32 27 17 14 24
46 48 47 43 43 45 44 44 41 35 26 15 8 7 16 11 12 22 35 33 19 20 18 22 59 53 23 6 4 6 6 9 8 7 13 13 5 4 6 8 6 12 28 39 27 14 24
42 46 45 43 43 45 44 43 42 38 32 23 10 6 21 23 44 23 19 27 37 28 16 26 25 28 25 6 3 6 7 9 4 3 8 5 5 9 12 12 12 12 25 33 8 9 48
42 46 44 44 43 45 45 44 42 37 30 29 22 22 22 29 68 70 53 51 39 37 9 17 18 13 9 7 6 7 6 7 8 8 5 6 5 5 5 6 11 21 21 5 20 61 52
42 44 45 45 44 47 48 45 41 37 26 24 34 12 28 37 53 74 90 81 80 83 65 29 18 13 7 6 5 6 6 7 10 7 6 4 8 4 8 9 21 53 29 34 33 39 53
Wind_Direction_850mb
26 25 22 17 15 14 12 8 3 0 358 354 352 349 346 339 329 322 320 320 316 315 317 322 324 322 339 322 270 338 356 7 9 350 319 314 300 279 243 246 237 257 269 263 251 249 257
25 22 19 14 11 10 9 7 5 2 358 353 348 344 340 335 330 323 318 315 313 313 317 318 317 318 333 265 12 336 342 339 325 316 307 303 303 315 292 286 280 297 292 280 270 262 248
20 16 13 10 8 6 4 1 359 357 356 354 350 344 338 333 328 321 316 313 310 311 314 312 305 312 287 249 331 287 324 319 308 296 307 291 298 328 321 320 303 321 310 291 278 274 264
18 14 9 5 3 1 359 356 353 351 349 349 348 345 339 332 327 321 315 312 306 314 322 297 300 301 260 145 342 227 314 314 308 306 295 294 272 277 287 284 291 299 290 288 1 245 264
13 11 9 6 4 0 356 353 353 348 345 343 344 345 341 332 326 319 317 310 301 304 308 294 295 294 286 188 249 324 340 313 315 309 304 283 258 237 278 283 294 240 266 276 286 272 263
14 13 14 12 10 8 6 1 355 351 346 341 340 343 342 336 332 320 323 318 314 308 270 310 230 277 269 270 330 347 325 306 305 291 283 265 216 191 244 212 242 251 257 257 254 269 256
12 9 7 8 6 5 3 1 0 357 351 345 342 341 342 337 335 329 356 7 356 336 323 253 239 243 296 291 337 316 312 326 309 325 304 323 326 239 232 239 238 249 263 281 291 336 333
6 5 2 0 360 359 358 357 358 358 357 350 344 340 340 337 338 351 338 355 4 311 300 280 261 262 267 285 275 288 309 322 331 311 308 327 282 275 305 294 277 282 276 277 298 315 300
0 358 355 353 352 352 352 353 353 353 353 353 345 340 338 339 13 339 346 349 343 328 303 300 235 235 223 270 269 272 246 295 315 315 312 318 301 315 315 312 311 301 295 298 280 283 270
356 355 353 350 349 349 350 348 347 346 344 343 346 338 337 334 317 332 357 336 331 319 299 207 161 185 210 255 250 215 221 193 256 291 293 279 292 293 300 301 302 289 273 283 288 287 276
356 355 352 350 350 349 349 347 344 342 341 337 335 336 336 313 343 22 350 333 326 72 5 188 133 171 230 215 262 292 192 191 237 251 254 250 277 291 307 352 339 315 330 308 313 289 290
356 354 352 351 349 349 348 346 344 342 342 339 329 334 326 242 303 0 327 311 313 279 262 144 160 213 205 257 297 282 262 214 245 245 259 262 264 315 184 329 319 307 341 332 303 272 265
354 353 351 349 348 347 347 345 345 344 344 341 335 329 308 222 297 1 324 339 353 238 233 71 9 4 337 302 285 259 284 279 275 288 293 321 330 26 97 307 320 334 41 312 295 250 257
352 351 349 348 347 346 347 346 346 345 346 341 348 353 350 219 52 340 336 341 253 331 359 5 0 326 290 315 9 342 316 330 332 21 338 307 313 74 126 191 243 297 256 188 274 271 297
349 348 347 347 346 347 347 349 348 346 348 344 354 93 63 94 76 338 331 309 336 324 7 2 349 323 331 357 1 329 338 330 358 18 342 316 288 304 226 259 242 170 262 237 220 284 332
347 346 346 347 347 349 352 352 351 348 355 352 6 33 23 117 311 349 327 287 300 28 356 353 317 317 338 345 353 336 335 346 342 34 3 335 309 289 327 333 314 185 209 307 214 243 255
346 346 347 348 350 352 355 356 356 350 359 359 46 335 188 193 313 273 271 266 305 326 2 356 307 311 337 335 333 319 309 320 343 11 351 28 294 296 321 281 291 310 310 360 35 220 208
346 346 350 349 351 354 354 359 360 355 353 12 22 325 201 12 267 200 251 292 345 335 1 320 49 319 350 324 318 304 295 302 71 61 337 64 275 283 274 279 272 278 316 181 226 279 250
345 347 349 348 352 352 353 356 0 1 352 352 344 277 259 35 35 330 328 347 314 338 331 332 3 357 326 298 308 319 295 313 46 36 5 348 291 305 302 257 111 105 317 133 278 232 244
343 345 345 346 351 351 349 352 359 3 358 349 335 324 36 309 9 16 336 329 327 324 342 352 276 287 291 289 283 280 307 305 293 254 292 216 234 223 260 269 301 293 285 267 261 275 285
343 343 343 346 349 349 349 355 1 9 20 13 4 30 6 322 342 317 302 291 306 337 354 348 333 329 346 327 316 298 311 304 301 14 103 187 247 233 256 269 274 271 275 271 262 245 253
343 341 343 347 346 348 350 356 1 9 32 39 20 0 342 296 313 294 293 347 347 331 331 314 296 329 331 305 285 290 301 306 302 360 244 200 267 276 270 272 262 268 263 260 260 264 254
340 342 344 345 345 347 349 355 360 6 22 61 28 354 331 293 305 310 17 332 311 306 289 299 292 304 298 281 291 307 295 284 283 187 186 204 270 268 264 322 322 287 300 267 274 282 237
337 342 342 343 343 346 347 352 356 2 13 39 360 337 324 290 317 315 317 304 306 320 290 296 307 276 294 316 313 297 281 266 251 147 146 179 226 269 285 304 270 83 36 12 331 33 28
335 340 339 344 344 345 345 347 350 353 353 345 77 310 275 283 296 298 342 316 302 301 336 320 320 326 323 318 292 300 308 175 176 164 169 156 186 285 288 287 274 298 40 20 0 315 26
331 337 336 341 342 340 341 341 343 345 341 329 243 301 276 288 252 289 316 304 323 326 315 310 321 324 328 274 298 288 284 280 302 132 141 173 194 186 320 284 292 37 3 351 320 254 14
327 332 332 334 337 336 335 335 333 333 334 330 332 220 277 267 279 267 298 307 301 296 284 320 342 329 340 327 295 248 263 356 330 307 216 207 226 223 236 248 277 25 353 320 278 295 332
323 329 328 329 333 332 332 332 330 327 331 328 315 236 266 272 281 280 286 274 289 291 274 307 331 5 308 322 346 343 318 312 331 306 253 230 242 253 255 266 283 23 7 351 315 306 308
320 325 324 326 329 330 330 330 329 325 322 311 307 291 274 275 259 279 290 284 272 269 259 261 251 336 291 306 48 308 306 296 325 288 124 248 196 264 214 248 330 312 284 305 298 292 300